Weather in Kyakhta

Russia / Samara Oblast     53°28′56″N   48°44′56″E
temp.,
°C
wind,
m/s
gust,
m/s
humid.,
%
clouds,
%
prec.,
mm/h
press.,
hPa
HPBL,
m
22 may, sun
sun2201:00+4wnw228050 0.0 100735
04:00+2wnw2284100 0.0 100618
07:00+6w227791 0.1 1003196
10:00+6ne328198 0.3 1003543
13:00+7nne427970 0.1 1002572
16:00+9nne3272100 0.1 1000697
19:00+10ne346899 0.1 999331
22:00+8ne3671100 0.1 999215
23 may, mon
mon2301:00+6nne3582100 0.2 998211
04:00+5n4683100 0.4 998254
07:00+5nne467963 0.0 999395
10:00+7n3467100 0.0 9991126
13:00+8wnw3458100 0.0 10001188
16:00+9wnw3558100 0.0 10021375
19:00+8wnw3566100 0.1 1002855
22:00+4wnw227873 0.1 100421
24 may, tue
tue2401:00+3w248116 0.0 100470
04:00+1wsw37872 0.0 1005128
07:00+5wsw47735 0.0 1005283
10:00+10sw68636 0.0 10051137
13:00+13wsw694395 0.1 10052490
16:00+14w6842100 0.1 10052310
19:00+12n346044 0.0 1006186
22:00+7ne237395 0.1 100870
25 may, wed
wed2501:00+7e2390100 0.7 1008144
04:00+4nw5695100 1.0 1009473
07:00+4nnw4588100 0.1 1010679
10:00+7nw457197 0.2 10111072
13:00+8nw4559100 0.1 10121294
16:00+10wnw455493 0.3 10121751
19:00+9wnw566997 0.2 1013602
22:00+5wnw38865 0.3 1013166
26 may, thu
thu2601:00+3wnw36895 0.0 1014126
04:00+2w37875 0.0 1014140
07:00+5w487793 0.0 1014316
10:00+9wsw566247 0.0 10141161
13:00+11wsw6751100 0.1 10131798
16:00+12sw5757100 0.1 10121638
19:00+12ssw4868100 0.0 1010313
22:00+10ssw71481100 0.3 1007462